Regional Weather Roundup
Issued by NWS

Home | Current Version | Previous Version | Graphics & Text | Print | Product List | Glossary On
Versions: 1 2 3 4 5 6 7 8 9 10 11 12 13 14 15 16 17 18 19 20 21 22 23 24 25 26 27 28 29 30 31 32 33 34 35 36 37 38 39 40 41 42 43 44 45 46 47 48 49 50
000
ASUS44 KMEG 240800
RWRTN
TENNESSEE HOURLY STATE WEATHER ROUNDUP
NATIONAL WEATHER SERVICE MEMPHIS TN
300 AM CDT FRI OCT 24 2014

TNZ002-004-019-021-049-052-054-088>092-240900-
WEST TENNESSEE

CITY           SKY/WX    TMP DP  RH WIND       PRES   REMARKS
MEMPHIS INTL   PTCLDY    51  47  86 CALM      30.13F
NWS MEMPHIS      N/A     47 N/A N/A MISG        N/A
JACKSON        MOCLDY    46  43  89 CALM      30.13S
DYERSBURG      CLEAR     45  34  65 CALM      30.16R
UNION CITY     CLEAR     41  39  93 CALM      30.13R
PARIS            N/A     37  37 100 CALM      30.13R VSB 1/2
LEXINGTON      CLEAR     45  45 100 CALM      30.11S
SAVANNAH       CLEAR     45  45 100 CALM      30.13S
$$

TNZ008-025-027-028-033-062-065-066-240900-
NORTH MIDDLE TENNESSEE

CITY           SKY/WX    TMP DP  RH WIND       PRES   REMARKS
NASHVILLE      CLOUDY    50  46  86 S3        30.11S
CLARKSVILLE    MOCLDY    49  45  86 CALM      30.11S
COOKEVILLE     CLEAR     45  45 100 CALM      30.08S
CROSSVILLE     CLOUDY    46  41  82 CALM      30.09S
$$

TNZ061-075-076-078-094-096-097-240900-
SOUTH MIDDLE TENNESSEE

CITY           SKY/WX    TMP DP  RH WIND       PRES   REMARKS
FAYETTEVILLE   CLEAR     46  43  87 E3G185    30.09F
TULLAHOMA      CLEAR     46  43  87 CALM      30.11S
WINCHESTER     CLEAR     45  45 100 CALM      30.10S
MCMINNVILLE    CLEAR     45  45 100 CALM      30.10S
SHELBYVILLE    CLEAR     45  45 100 CALM      30.11S
$$

TNZ017-018-042-046-047-240900-
NORTHEAST TENNESSEE

CITY           SKY/WX    TMP DP  RH WIND       PRES   REMARKS
TRI CITIES     MOCLDY    40  38  93 CALM      30.12F
ELIZABETHTON   SUNNY     37  36  93 NE3       30.11F
$$

TNZ012-013-036-069-073-074-240900-
CENTRAL EAST TENNESSEE

CITY           SKY/WX    TMP DP  RH WIND       PRES   REMARKS
KNOXVILLE      CLOUDY    47  42  83 NE8       30.08S
OAK RIDGE      CLOUDY    47  45  93 CALM      30.11F
GATLINBURG     SUNNY     39  39 100 CALM      30.09S
MORRISTOWN     SUNNY     45  43  93 NE6       30.10S
$$

TNZ083-085-099-240900-
SOUTHEAST TENNESSEE

CITY           SKY/WX    TMP DP  RH WIND       PRES   REMARKS
CHATTANOOGA    CLOUDY    50  46  86 CALM      30.08F
$$

SKY/WX REPORTED AS FAIR MEANS FEW OR NO CLOUDS BELOW
12 THOUSAND FEET.




USA.gov is the U.S. government's official web portal to all federal, state and local government web resources and services.